Powrót do katalogu

STARLINK-5037

AktywnyŁącznośćVLEO
NORAD 53896·PAYLOAD·🇺🇸 United States

Wystrzelony Sep 24, 2022 z Cape Canaveral Space Force Station

Loading…

Następne Przeloty (najbliższe 24 godziny)

TLE

ŚwieżeSource: CelesTrak SupGP

Epoka: Sep 14, 2026, 20:40 UTC

1 53896C 22119L   26257.86159722 -.00000079  00000+0 -22539-5 0  2578
2 53896  53.1605 190.4556 0001291  97.4545  42.0094 15.35405460    13

Śledź STARLINK-5037 w czasie rzeczywistym z AllMySat

Download on the App Store